| time (UTC) | temp C | wind direction | speed KPH | gust KPH | rain 1hr cm | rain 24hr cm | rain mn cm | humidity % | barometer mb |
| 20260506202136 | 30 | 101 | 1.6 | 9.7 | 0.00 | 0.00 | 0.00 | 78 | 1004.7 |
| 20260506201632 | 30 | 263 | 1.6 | 16.1 | 0.00 | 0.00 | 0.00 | 78 | 1004.7 |
| 20260506201133 | 30 | 119 | 1.6 | 16.1 | 0.00 | 0.00 | 0.00 | 79 | 1004.8 |
| 20260506200903 | 30 | 242 | 0.0 | 3.2 | 0.00 | 0.00 | 0.00 | 79 | 1004.8 |
| 20260506200130 | 30 | 203 | 0.0 | 4.8 | 0.00 | 0.00 | 0.00 | 80 | 1005.0 |
| 20260506195630 | 30 | 255 | 0.0 | 4.8 | 0.00 | 0.00 | 0.00 | 79 | 1005.0 |
| 20260506195124 | 30 | 169 | 1.6 | 6.4 | 0.00 | 0.00 | 0.00 | 80 | 1005.1 |
| 20260506194621 | 30 | 268 | 1.6 | 6.4 | 0.00 | 0.00 | 0.00 | 80 | 1005.1 |
| 20260506194122 | 30 | 190 | 0.0 | 4.8 | 0.00 | 0.00 | 0.00 | 80 | 1005.1 |
| 20260506193622 | 29 | 93 | 1.6 | 12.9 | 0.00 | 0.00 | 0.00 | 82 | 1005.1 |
| 20260506193123 | 29 | 112 | 1.6 | 12.9 | 0.00 | 0.00 | 0.00 | 81 | 1005.2 |
| 20260506192622 | 29 | 86 | 1.6 | 8.0 | 0.00 | 0.00 | 0.00 | 81 | 1005.3 |
| 20260506192119 | 30 | 148 | 1.6 | 11.3 | 0.00 | 0.00 | 0.00 | 80 | 1005.3 |
| 20260506191619 | 30 | 193 | 1.6 | 11.3 | 0.00 | 0.00 | 0.00 | 79 | 1005.3 |
| 20260506191349 | 30 | 76 | 0.0 | 6.4 | 0.00 | 0.00 | 0.00 | 78 | 1005.3 |
| 20260506190617 | 30 | 169 | 1.6 | 6.4 | 0.00 | 0.00 | 0.00 | 79 | 1005.4 |
| 20260506190118 | 30 | 132 | 1.6 | 9.7 | 0.00 | 0.00 | 0.00 | 78 | 1005.4 |
| 20260506185618 | 30 | 107 | 1.6 | 9.7 | 0.00 | 0.00 | 0.00 | 78 | 1005.5 |
| 20260506185348 | 30 | 101 | 0.0 | 6.4 | 0.00 | 0.00 | 0.00 | 78 | 1005.6 |
| 20260506184611 | 30 | 212 | 0.0 | 6.4 | 0.00 | 0.00 | 0.00 | 79 | 1005.7 |
| 20260506184112 | 30 | 53 | 1.6 | 8.0 | 0.00 | 0.00 | 0.00 | 78 | 1005.7 |
| 20260506183612 | 30 | 115 | 1.6 | 8.0 | 0.00 | 0.00 | 0.00 | 78 | 1005.7 |
| 20260506183112 | 30 | 240 | 1.6 | 8.0 | 0.00 | 0.00 | 0.00 | 80 | 1005.7 |
| 20260506182611 | 30 | 84 | 0.0 | 4.8 | 0.00 | 0.00 | 0.00 | 79 | 1005.8 |
| 20260506182112 | 30 | 241 | 0.0 | 4.8 | 0.00 | 0.00 | 0.00 | 80 | 1005.9 |
| 20260506181614 | 29 | 257 | 1.6 | 4.8 | 0.00 | 0.00 | 0.00 | 81 | 1006.0 |
| 20260506181113 | 29 | 126 | 0.0 | 8.0 | 0.00 | 0.00 | 0.00 | 82 | 1006.2 |
| 20260506181107 | 29 | 112 | 1.6 | 8.0 | 0.00 | 0.00 | 0.00 | 81 | 1006.2 |
| 20260506180105 | 29 | 136 | 0.0 | 3.2 | 0.00 | 0.00 | 0.00 | 81 | 1006.4 |
| 20260506175606 | 28 | 134 | 0.0 | 3.2 | 0.00 | 0.00 | 0.00 | 82 | 1006.4 |
| 20260506175106 | 28 | 66 | 1.6 | 8.0 | 0.00 | 0.00 | 0.00 | 83 | 1006.5 |
| 20260506174839 | 28 | 104 | 1.6 | 8.0 | 0.00 | 0.00 | 0.00 | 82 | 1006.5 |
| 20260506174106 | 29 | 91 | 0.0 | 3.2 | 0.00 | 0.00 | 0.00 | 82 | 1006.5 |
| 20260506173601 | 28 | 245 | 0.0 | 3.2 | 0.00 | 0.00 | 0.00 | 84 | 1006.6 |
| 20260506173102 | 28 | 261 | 1.6 | 8.0 | 0.00 | 0.00 | 0.00 | 85 | 1006.6 |
| 20260506172601 | 27 | 111 | 3.2 | 9.7 | 0.00 | 0.00 | 0.00 | 85 | 1006.6 |
| 20260506172101 | 27 | 76 | 3.2 | 9.7 | 0.00 | 0.00 | 0.00 | 85 | 1006.8 |
| 20260506171602 | 28 | 149 | 1.6 | 8.0 | 0.00 | 0.00 | 0.00 | 85 | 1006.8 |
| 20260506171102 | 27 | 106 | 3.2 | 9.7 | 0.00 | 0.00 | 0.00 | 86 | 1006.8 |
| 20260506170822 | 27 | 131 | 3.2 | 9.7 | 0.00 | 0.00 | 0.00 | 86 | 1006.9 |
| 20260506170817 | 27 | 170 | 1.6 | 9.7 | 0.00 | 0.00 | 0.00 | 87 | 1006.9 |
| 20260506170812 | 27 | 148 | 1.6 | 6.4 | 0.00 | 0.00 | 0.00 | 88 | 1006.9 |
| 20260506170746 | 27 | 172 | 3.2 | 9.7 | 0.00 | 0.00 | 0.00 | 86 | 1006.8 |
| 20260506170449 | 27 | 124 | 1.6 | 9.7 | 0.00 | 0.00 | 0.00 | 86 | 1006.9 |
| 20260506164557 | 27 | 148 | 1.6 | 6.4 | 0.00 | 0.00 | 0.00 | 88 | 1006.9 |
| 20260506164054 | 27 | 73 | 1.6 | 9.7 | 0.00 | 0.00 | 0.00 | 89 | 1006.8 |
| 20260506163554 | 27 | 100 | 1.6 | 9.7 | 0.00 | 0.00 | 0.00 | 89 | 1006.8 |
| 20260506163048 | 26 | 120 | 1.6 | 8.0 | 0.00 | 0.00 | 0.00 | 89 | 1006.7 |
| 20260506162546 | 27 | 99 | 0.0 | 4.8 | 0.00 | 0.00 | 0.00 | 89 | 1006.7 |
| 20260506162046 | 27 | 102 | 0.0 | 3.2 | 0.00 | 0.00 | 0.00 | 89 | 1006.7 |
| 20260506161542 | 27 | 102 | 0.0 | 3.2 | 0.00 | 0.00 | 0.00 | 89 | 1006.6 |
| 20260506161044 | 26 | 127 | 0.0 | 3.2 | 0.00 | 0.00 | 0.00 | 90 | 1006.6 |
| 20260506160535 | 26 | 142 | 0.0 | 4.8 | 0.00 | 0.00 | 0.00 | 91 | 1006.5 |
| 20260506160038 | 26 | 84 | 1.6 | 6.4 | 0.00 | 0.00 | 0.00 | 92 | 1006.5 |
| 20260506155536 | 26 | 94 | 1.6 | 6.4 | 0.00 | 0.00 | 0.00 | 91 | 1006.5 |
| 20260506155039 | 26 | 73 | 1.6 | 4.8 | 0.00 | 0.00 | 0.00 | 92 | 1006.5 |
| 20260506154536 | 26 | 89 | 1.6 | 4.8 | 0.00 | 0.00 | 0.00 | 92 | 1006.5 |
| 20260506154039 | 26 | 102 | 1.6 | 6.4 | 0.00 | 0.00 | 0.00 | 92 | 1006.5 |
| 20260506153530 | 25 | 120 | 1.6 | 6.4 | 0.00 | 0.00 | 0.00 | 92 | 1006.5 |
| 20260506153040 | 26 | 95 | 1.6 | 6.4 | 0.00 | 0.00 | 0.00 | 92 | 1006.2 |
| 20260506153032 | 26 | 93 | 1.6 | 6.4 | 0.00 | 0.00 | 0.00 | 92 | 1006.3 |
| 20260506152035 | 26 | 148 | 1.6 | 6.4 | 0.00 | 0.00 | 0.00 | 92 | 1006.1 |
| 20260506151530 | 26 | 119 | 1.6 | 4.8 | 0.00 | 0.00 | 0.00 | 92 | 1006.1 |
| 20260506151050 | 26 | 105 | 1.6 | 4.8 | 0.00 | 0.00 | 0.00 | 92 | 1006.2 |
| 20260506150528 | 26 | 84 | 1.6 | 6.4 | 0.00 | 0.00 | 0.00 | 91 | 1006.1 |
| 20260506150030 | 26 | 73 | 1.6 | 6.4 | 0.00 | 0.00 | 0.00 | 91 | 1006.0 |
| 20260506145523 | 26 | 76 | 1.6 | 6.4 | 0.00 | 0.00 | 0.00 | 91 | 1005.9 |
| 20260506145316 | 26 | 150 | 1.6 | 6.4 | 0.00 | 0.00 | 0.00 | 91 | 1005.7 |
| 20260506144524 | 26 | 98 | 1.6 | 9.7 | 0.00 | 0.00 | 0.00 | 91 | 1005.6 |
| 20260506144028 | 26 | 119 | 1.6 | 9.7 | 0.00 | 0.00 | 0.00 | 91 | 1005.5 |
| 20260506143537 | 26 | 84 | 1.6 | 8.0 | 0.00 | 0.00 | 0.00 | 91 | 1005.4 |
| 20260506143521 | 26 | 167 | 1.6 | 9.7 | 0.00 | 0.00 | 0.00 | 91 | 1005.4 |
| 20260506142519 | 26 | 133 | 1.6 | 8.0 | 0.00 | 0.00 | 0.00 | 91 | 1005.4 |
| 20260506142032 | 26 | 119 | 1.6 | 6.4 | 0.00 | 0.00 | 0.00 | 91 | 1005.5 |
| 20260506141750 | 25 | 88 | 1.6 | 6.4 | 0.00 | 0.00 | 0.00 | 92 | 1005.5 |
| 20260506141302 | 25 | 78 | 1.6 | 6.4 | 0.00 | 0.00 | 0.00 | 92 | 1005.5 |
| 20260506140511 | 25 | 117 | 1.6 | 9.7 | 0.00 | 0.00 | 0.00 | 92 | 1005.7 |
| 20260506140018 | 25 | 89 | 1.6 | 9.7 | 0.00 | 0.00 | 0.00 | 92 | 1005.7 |
| 20260506135511 | 25 | 141 | 1.6 | 4.8 | 0.00 | 0.00 | 0.00 | 93 | 1005.7 |
| 20260506135250 | 25 | 114 | 1.6 | 0.0 | 0.00 | 0.00 | 0.00 | 94 | 1005.7 |